Other Public Products
Issued by NWS Grand Forks, ND

Home | Current Version | Previous Version | Text Only | Print | Product List | Glossary On
Versions: 1 2 3 4 5 6 7 8 9 10 11 12 13 14 15 16 17 18 19 20 21 22 23 24 25 26 27 28 29 30 31 32 33 34 35 36 37 38 39 40 41 42 43 44 45 46 47 48 49 50
977
FPUS83 KFGF 252331
OPUFGF
PRAIRIE TO PINES WEATHER ROUNDUP
NATIONAL WEATHER SERVICE EASTERN NORTH DAKOTA/GRAND FORKS ND
600 PM CDT THU AUG 25 2016

 **SATELLITE DATA USED TO AUGMENT SKY COVER AT AUTOMATED STATIONS**
 *****  WEATHER ACROSS EASTERN NORTH DAKOTA  *****

CITY           SKY/WX    TMP DP  RH WIND       PRES   REMARKS
GRAND FORKS    MOSUNNY   70  49  47 NW10      30.04S
GRAND FORKS AF MOSUNNY   69  51  52 W7        30.05F
GRAND CITY NWS NOT AVBL
BUXTON           N/A     67  50  53 W6          N/A
DEVILS LAKE    SUNNY     70  43  37 N12       30.07S
FARGO          CLOUDY    69  50  50 NW12      30.07S
WAHPETON ARPT  CLOUDY    64  52  63 W9        30.09F
$$

 *****  WEATHER ACROSS CENTRAL AND WESTERN NORTH DAKOTA  *****

CITY           SKY/WX    TMP DP  RH WIND       PRES   REMARKS
JAMESTOWN      CLOUDY    65  51  60 W8        30.10S
BISMARCK       CLOUDY    67  47  48 W9        30.14F
MINOT          SUNNY     74  39  28 W8        30.07S
MINOT AFB      SUNNY     74  37  25 NW15      30.05F
GARRISON         N/A     72  41  32 W8        30.09F
WILLISTON      PTSUNNY   76  34  21 VRB5      30.09F
DICKINSON      PTSUNNY   69  35  28 W10       30.13F
HETTINGER      CLOUDY    66  41  40 W6        30.19F
$$

 *****  OTHER OBSERVATIONS NORTHEAST NORTH DAKOTA  *****

CITY           SKY/WX    TMP DP  RH WIND       PRES   REMARKS
WALHALLA       FAIR      72  68  88 NW6       30.02S
LANGDON        FAIR      70  43  37 W14       30.05S
CAVALIER       FAIR      72  46  40 N5        30.02S
GRAFTON        FAIR      70  52  52 VRB5      30.04F
CANDO          FAIR      70  45  40 NW8       30.08S
FORT TOTTEN      N/A     69  46  43 NW3       29.95S
ROLLA          FAIR      66  45  45 NW13      30.07S
RUGBY          NOT AVBL
 ***** THE ABOVE OBSERVATIONS ARE NON NWS ARE NOT QUALITY
        CONTROLLED AND MAY MIS-REPORT RAIN FOR SNOW...
$$

 *****  OTHER OBSERVATIONS SOUTHEAST NORTH DAKOTA *****

CITY           SKY/WX    TMP DP  RH WIND       PRES   REMARKS
COOPERSTOWN    NOT AVBL
VALLEY CITY    CLOUDY    66  52  59 W8        30.11F
OAKES            N/A    N/A N/A N/A MISG        N/A
GWINNER        CLOUDY    68  54  60 W12       30.11S
SHEYENNE NWR     N/A     68  52  56 NW5       29.95S
BUFFALO          N/A     67  46  45 N6          N/A
WYNDMERE         N/A     66  54  63 W6          N/A
 ***** THE ABOVE OBSERVATIONS ARE NON NWS ARE NOT QUALITY
       CONTROLLED AND MAY MIS-REPORT RAIN FOR SNOW...
$$

  *****  WEATHER ACROSS NORTHERN MINNESOTA  *****

CITY           SKY/WX    TMP DP  RH WIND       PRES   REMARKS
FLAG ISLAND    CLOUDY    64  52  63 CALM      29.99R
WARROAD        CLOUDY    64  54  68 NW3       30.02S
ROSEAU         SUNNY     68  54  60 W8        30.02S
HALLOCK        MOSUNNY   70  48  46 NW9       30.02S
THF RVR FALLS  CLOUDY    65  49  56 NW10      30.05S
HALSTAD          N/A     66  52  60 W6          N/A
FOSSTON        MOSUNNY   66  48  52 NW9       30.06S
BAUDETTE       CLOUDY    62  52  69 NW12      30.01R
WASKISH        CLOUDY    61  55  82 NW6       30.02F
CROOKSTON      SUNNY     70  48  46 NW9       30.05S
$$
  *****  WEATHER ACROSS CENTRAL AND WEST MINNESOTA  *****

CITY           SKY/WX    TMP DP  RH WIND       PRES   REMARKS
BEMIDJI        CLOUDY    62  51  69 NW14      30.04S
PARK RAPIDS    CLOUDY    65  52  62 NW13      30.06S
WADENA         CLOUDY    61  54  77 W8        30.07S
DETROIT LAKES  MOSUNNY   64  52  63 NW10      30.08S
MOORHEAD       PTSUNNY   68  48  49 NW10      30.08S
FERGUS FALLS   CLOUDY    64  54  68 W8        30.10S
ELBOW LAKE     CLOUDY    63  55  76 W8        30.11R
MORRIS MN      CLOUDY    66  54  63 W8        30.10S
STAPLES        CLOUDY    63  54  72 W8        30.07S
WHEATON        PTSUNNY   66  55  68 W8        30.12S
$$
  *****  WEATHER ELSEWHERE ACROSS MINNESOTA  *****

CITY           SKY/WX    TMP DP  RH WIND       PRES   REMARKS
DULUTH         PTSUNNY   65  55  70 W16G22    30.00R
INTRNTL FALLS  CLOUDY    61  54  77 NW8       29.98R
ELY            LGT RAIN  61  57  88 W12G17    29.96R
CLOQUET        CLOUDY    64  54  68 SW10      30.02S
BRAINERD       CLOUDY    64  55  72 NW9       30.06R
HIBBING        CLOUDY    62  54  74 W14G22    30.00R
ALEXANDRIA     CLOUDY    62  55  77 NW7       30.11R
SAINT CLOUD    PTSUNNY   67  54  63 W12       30.07F
MINNEAPOLIS    PTSUNNY   71  54  54 NW13      30.07R
$$

  *****  WEATHER ACROSS SOUTH DAKOTA  *****

CITY           SKY/WX    TMP DP  RH WIND       PRES   REMARKS
SIOUX FALLS    MOSUNNY   74  54  49 NW8       30.13S
BROOKINGS      SUNNY     69  51  52 NW14      30.12S
WATERTOWN      MOSUNNY   67  51  56 W10       30.13S
HURON          PTSUNNY   71  51  49 N15       30.12S
SISSETON         N/A     65  53  65 NW9       30.11R
ABERDEEN       CLOUDY    66  51  58 NW8       30.14S
MITCHELL       SUNNY     74  48  39 W13       30.13F
PIERRE         SUNNY     70  46  42 N13       30.14F
MOBRIDGE       MOSUNNY   69  48  47 NW8       30.15S
RAPID CITY     SUNNY     69  40  34 NW8       30.21F
$$

  *****  SOME WEATHER IN NEARBY STATES *****

CITY           SKY/WX    TMP DP  RH WIND       PRES   REMARKS
GLASGOW MT     PTSUNNY   71  40  32 W13       30.11F
GREAT FALLS MT CLOUDY    69  34  27 VRB5      30.17F
CHEYENNE WY    CLOUDY    67  37  33 S13G21    30.23F
SCOTTSBLUFF NE SUNNY     71  46  40 E10       30.20F
OMAHA NE       PTSUNNY   78  61  55 N6        30.11F
DES MOINES IA  CLOUDY    76  62  62 N7        30.09F
DAVENPORT IA   MOSUNNY   76  63  64 NW5       30.08S
CHICAGO IL     CLOUDY    78  64  61 W10       30.03R
EAU CLAIRE WI  SUNNY     74  55  51 W12       30.03R
LA CROSSE WI   SUNNY     77  61  57 W6        30.03F
$$

  *****  SOME NATIONAL WEATHER *****

CITY           SKY/WX    TMP DP  RH WIND       PRES   REMARKS
LA GUARDIA NY  CLOUDY    80  70  71 S10       29.99F
RALEIGH NC     PTCLDY    88  70  55 CALM      30.07F HX  93
ATLANTA GA     MOSUNNY   89  68  49 E8        30.09S HX  93
NEW ORLEANS LA CLOUDY    84  75  74 W3        30.02F HX  92
OKLAHOMA CITY  MOSUNNY   93  66  40 SE9       29.97F HX  96
ALBUQUERQUE NM CLOUDY    82  39  21 VRB5      30.13F
SALT LAKE CITY PTSUNNY   84  30  14 NW9       30.00F
LOS ANGELES CA MOSUNNY   71  60  68 W13       29.91S
BOISE ID       SUNNY     83  33  16 N9        30.00F
SEATTLE WA     MOSUNNY   89  51  27 N14       30.03F
$$

*** WEATHER ACROSS MANITOBA...SASKATCHEWAN AND ONTARIO ***
                ***ONTARIO***

CITY           SKY/WX    TMP DP  RH WIND       PRES   REMARKS
GERALDTON      TSTM      59  59 100 N7        29.81S
THUNDER BAY    PTSUNNY   70  55  60 W12G21    29.85R
SIOUX LOOKOUT  PTSUNNY   57  52  82 N7        29.93R
TORONTO        PTSUNNY   73  72  94 SE6       29.92F
BIG TROUT LK   SUNNY     66  41  39 N5        29.84S
PICKLE LAKE    PTSUNNY   52  50  93 NE3       29.92S
DRYDEN         PTSUNNY   57  54  88 NW7       29.95R
KENORA         PTSUNNY   64  48  55 NW5       29.98S
$$
                *** MANITOBA***

CITY           SKY/WX    TMP DP  RH WIND       PRES   REMARKS
BRANDON        MOSUNNY   72  45  37 N13       30.03F
DAUPHIN        SUNNY     72  46  40 CALM      30.01S
ISLAND LAKE    PTSUNNY   64  57  77 CALM      29.89R
PILOT MOUND      N/A     70  39  32 NW10        N/A
THE PAS        MOSUNNY   70  50  49 NE9G17    29.94F
THOMPSON       PTSUNNY   75  48  38 W6        29.83F
WINNIPEG       PTSUNNY   70  46  43 NW13      30.00S
LYNN LAKE      CLOUDY    70  45  40 MISG      29.87S
CHURCHILL      LGT RAIN  52  50  93 N8        29.84S
GILLAM         PTSUNNY   72  57  60 W3        29.79F
$$
                ***SASKATCHEWAN***

CITY           SKY/WX    TMP DP  RH WIND       PRES   REMARKS
ESTEVAN        MOSUNNY   70  41  35 W9        30.06F
KINDERSLEY     CLOUDY    59  55  88 NW5       30.07F
LLOYDMINSTER   TSTM      59  55  88 NW10      30.06S
PRINCE ALBERT  PTSUNNY   72  52  49 W9        29.98F
REGINA         PTSUNNY   73  45  35 W14       30.05F
YORKTON        SUNNY     72  45  37 SW8       30.02F   C1F1C2F2C3F3C4F4C5F5C6F6C7F7C8F8C9F9CaFaCbFbCcFcCdFdCe!



USA.gov is the U.S. government's official web portal to all federal, state and local government web resources and services.